Regional Weather Roundup
Issued by NWS Green Bay, WI

Home | Current Version | Previous Version | Text Only | Print | Product List | Glossary On
Versions: 1 2 3 4 5 6 7 8 9 10 11 12 13 14 15 16 17 18 19 20 21 22 23 24 25 26 27 28 29 30 31 32 33 34 35 36 37 38 39 40 41 42 43 44 45 46 47 48 49 50
000
ASUS43 KGRB 020310
RWRGRB

NORTH-CENTRAL AND NORTHEAST WISCONSIN REGIONAL WEATHER ROUNDUP
NATIONAL WEATHER SERVICE GREEN BAY WI
1000 PM CDT WED APR 01 2015

WIZ005-009-010>012-018-019-020400-
NORTH CENTRAL WISCONSIN

CITY           SKY/WX    TMP DP  RH WIND       PRES   REMARKS
IRONWOOD       CLOUDY    57  45  62 S13G18    29.45F
MANITOWISH WTR LGT RAIN  47  41  77 CALM      29.61R
ARBOR VITAE    CLOUDY    54  39  57 N7        29.64R
EAGLE RIVER    CLOUDY    50  35  56 CALM      29.61R
LAND O LAKES   CLOUDY    47  36  64 CALM      29.65R
RHINELANDER    CLOUDY    54  37  52 S8        29.60F
PHILLIPS       CLOUDY    65  35  33 W3        29.59R
ANTIGO         MOCLDY    48  39  71 S10       29.63S
TOMAHAWK       CLOUDY    51  37  59 CALM      29.60F
MERRILL        MOCLDY    51  39  63 E3        29.61S
$$

WIZ013-073-020400-
NORTHEAST WISCONSIN

CITY           SKY/WX    TMP DP  RH WIND       PRES   REMARKS
IRON MOUNTAIN  CLOUDY    43  34  70 SE3       29.63F
MARINETTE      CLOUDY    48  36  61 S6        29.66F
OCONTO         CLOUDY    55  38  54 S9G17     29.65F
$$

WIZ017-030-035>037-045-020400-
CENTRAL WISCONSIN

CITY           SKY/WX    TMP DP  RH WIND       PRES   REMARKS
MEDFORD        MOCLDY    60  36  40 S14       29.59S
WAUSAU         PTCLDY    66  33  29 S18G26    29.59S
MOSINEE        CLEAR     64  34  32 S21G29    29.61F
MARSHFIELD     CLEAR     65  33  30 SW15G24   29.61R
WISC RAPIDS    CLEAR     67  30  25 S16G24    29.63S
STEVENS POINT  CLEAR     61  34  36 S10       29.63S
WAUPACA        CLEAR     66  33  29 S14G23    29.65S
SHAWANO        MOCLDY    59  38  45 S5        29.64F
CLINTONVILLE   PTCLDY    61  36  39 S20G26    29.64F
$$

WIZ038-039-048-051-020400-
FOX VALLEY

CITY           SKY/WX    TMP DP  RH WIND       PRES   REMARKS
NWS GREEN BAY  MOCLDY    56  40  55 S16       29.68S
APPLETON       PTCLDY    63  36  36 S25G33    29.68F
OSHKOSH        CLEAR     62  39  42 S23G33    29.68F
FOND DU LAC    CLEAR     64  38  38 S25G32    29.70F
$$

WIZ022-050-052-020400-
EAST CENTRAL WISCONSIN

CITY           SKY/WX    TMP DP  RH WIND       PRES   REMARKS
STURGEON BAY   CLOUDY    48  36  61 S16       29.72S
MANITOWOC      MOCLDY    47  38  71 S10       29.72F
SHEBOYGAN      PTCLDY    51  37  58 S17       29.73F
$$

LMZ563-521-522-541>543-020400-
LAKESHORE

STATION/POSITION TIME  TEMP    WIND        PRES    VSBY  WAVE
                       AIR SEA DIR/SP/G                  HT/PER
                 (UTC) (F)     (DEG/KT/KT) (MB)    (MI)  (FT/S)
SHEBOYGAN LKSHOR 0300   43     180/ 24/ 25 1007.6F
KEWAUNEE LKSHORE 0300   46     190/ 20/ 23 1005.6F
NORTHPORT PIER   0300   39     150/ 12/ 16 1005.8F
CHAMBERS ISLAND  0300   51     160/  6/ 15 1005.4F
MENOMINEE LKSHOR 0300   47     170/  9     1005.5F
$$


USA.gov is the U.S. government's official web portal to all federal, state and local government web resources and services.